QPF
0.00 0.00 0.00 0.00 0.00 0.00 0.00 0.00 0.00 0.00 0.00 0.00 0.00 0.00 0.00 0.00 0.01 0.05 0.04 0.01 0.00 0.00 0.00 0.00 0.00 0.00 0.00 0.00 0.00 0.00 0.00 0.00 0.00 0.00 0.00 0.00 0.00 0.00 0.00 0.00 0.00 0.00 0.00
0.00 0.00 0.00 0.00 0.00 0.00 0.00 0.00 0.00 0.00 0.00 0.00 0.00 0.00 0.00 0.00 0.00 0.03 0.06 0.03 0.00 0.00 0.01 0.00 0.00 0.00 0.00 0.00 0.00 0.00 0.00 0.00 0.00 0.00 0.00 0.00 0.00 0.00 0.00 0.00 0.00 0.00 0.00
0.00 0.00 0.00 0.00 0.00 0.00 0.00 0.00 0.00 0.00 0.00 0.00 0.00 0.00 0.00 0.00 0.00 0.00 0.02 0.04 0.02 0.01 0.00 0.00 0.00 0.00 0.00 0.00 0.00 0.00 0.00 0.00 0.00 0.00 0.00 0.00 0.00 0.00 0.00 0.00 0.00 0.00 0.00
0.00 0.00 0.00 0.00 0.00 0.00 0.00 0.00 0.00 0.00 0.00 0.00 0.00 0.00 0.00 0.00 0.00 0.00 0.00 0.01 0.01 0.00 0.00 0.00 0.00 0.00 0.00 0.00 0.00 0.00 0.00 0.00 0.00 0.00 0.00 0.00 0.00 0.00 0.00 0.00 0.00 0.00 0.00
0.00 0.00 0.00 0.00 0.00 0.00 0.00 0.00 0.00 0.00 0.00 0.00 0.00 0.00 0.00 0.00 0.00 0.00 0.00 0.00 0.00 0.00 0.00 0.00 0.00 0.00 0.00 0.00 0.00 0.00 0.00 0.00 0.00 0.00 0.00 0.00 0.00 0.00 0.00 0.00 0.00 0.00 0.00
0.00 0.00 0.00 0.00 0.00 0.00 0.00 0.00 0.00 0.00 0.00 0.00 0.00 0.00 0.00 0.00 0.00 0.00 0.00 0.00 0.00 0.00 0.00 0.00 0.00 0.00 0.00 0.00 0.00 0.00 0.00 0.00 0.00 0.00 0.00 0.00 0.00 0.00 0.00 0.00 0.00 0.00 0.00
0.00 0.00 0.00 0.00 0.00 0.00 0.00 0.00 0.00 0.00 0.00 0.00 0.00 0.00 0.00 0.00 0.00 0.00 0.00 0.00 0.00 0.00 0.00 0.00 0.00 0.00 0.00 0.00 0.00 0.00 0.00 0.00 0.00 0.00 0.00 0.00 0.00 0.00 0.00 0.00 0.00 0.00 0.00
0.00 0.00 0.00 0.00 0.00 0.00 0.00 0.00 0.00 0.00 0.00 0.00 0.00 0.00 0.00 0.00 0.00 0.00 0.00 0.00 0.00 0.00 0.00 0.00 0.00 0.00 0.00 0.00 0.00 0.00 0.00 0.00 0.00 0.00 0.00 0.00 0.00 0.00 0.00 0.00 0.00 0.00 0.00
0.00 0.00 0.00 0.00 0.00 0.00 0.00 0.00 0.00 0.00 0.00 0.00 0.00 0.00 0.00 0.00 0.00 0.00 0.00 0.00 0.00 0.00 0.00 0.00 0.00 0.00 0.00 0.00 0.00 0.00 0.00 0.00 0.00 0.00 0.00 0.00 0.00 0.00 0.00 0.00 0.00 0.00 0.00
0.00 0.00 0.00 0.00 0.00 0.00 0.00 0.00 0.00 0.00 0.00 0.00 0.00 0.00 0.00 0.00 0.00 0.00 0.00 0.00 0.00 0.00 0.00 0.00 0.00 0.00 0.00 0.00 0.00 0.00 0.00 0.00 0.00 0.00 0.00 0.00 0.00 0.00 0.00 0.00 0.00 0.00 0.00
0.00 0.00 0.00 0.00 0.00 0.00 0.00 0.00 0.00 0.00 0.00 0.00 0.00 0.00 0.00 0.00 0.00 0.00 0.00 0.00 0.00 0.00 0.00 0.00 0.00 0.00 0.00 0.00 0.00 0.00 0.00 0.00 0.00 0.00 0.00 0.00 0.00 0.00 0.00 0.00 0.00 0.00 0.00
0.00 0.00 0.00 0.00 0.00 0.00 0.00 0.00 0.00 0.00 0.00 0.00 0.00 0.00 0.00 0.00 0.00 0.00 0.00 0.00 0.00 0.00 0.00 0.00 0.00 0.00 0.00 0.00 0.00 0.00 0.00 0.00 0.00 0.00 0.00 0.00 0.00 0.00 0.00 0.00 0.00 0.00 0.00
0.00 0.00 0.00 0.00 0.00 0.00 0.00 0.00 0.00 0.00 0.00 0.00 0.00 0.00 0.00 0.00 0.00 0.00 0.00 0.00 0.00 0.00 0.00 0.00 0.00 0.00 0.00 0.00 0.00 0.00 0.00 0.00 0.00 0.00 0.00 0.00 0.00 0.00 0.00 0.00 0.00 0.00 0.00
0.00 0.00 0.00 0.00 0.00 0.00 0.00 0.00 0.00 0.00 0.00 0.00 0.00 0.00 0.00 0.00 0.00 0.00 0.00 0.00 0.00 0.00 0.00 0.00 0.00 0.00 0.00 0.00 0.00 0.00 0.00 0.00 0.00 0.00 0.00 0.00 0.00 0.00 0.00 0.00 0.00 0.00 0.00
0.00 0.00 0.00 0.00 0.00 0.00 0.00 0.00 0.00 0.00 0.00 0.00 0.00 0.00 0.00 0.00 0.00 0.00 0.00 0.00 0.00 0.00 0.00 0.00 0.00 0.00 0.00 0.00 0.00 0.00 0.00 0.00 0.00 0.00 0.00 0.00 0.00 0.00 0.00 0.00 0.00 0.00 0.00
0.00 0.00 0.00 0.00 0.00 0.00 0.00 0.00 0.00 0.00 0.00 0.00 0.00 0.00 0.00 0.00 0.00 0.00 0.00 0.00 0.00 0.00 0.00 0.00 0.00 0.00 0.00 0.00 0.00 0.00 0.00 0.00 0.00 0.00 0.00 0.00 0.00 0.00 0.00 0.00 0.00 0.00 0.00
0.00 0.00 0.00 0.00 0.00 0.00 0.00 0.00 0.00 0.00 0.00 0.00 0.00 0.00 0.00 0.00 0.00 0.00 0.00 0.00 0.00 0.00 0.00 0.00 0.00 0.00 0.00 0.00 0.00 0.00 0.00 0.00 0.00 0.00 0.00 0.00 0.00 0.00 0.00 0.00 0.00 0.00 0.00
0.00 0.00 0.00 0.00 0.00 0.00 0.00 0.00 0.00 0.00 0.00 0.00 0.00 0.00 0.00 0.00 0.00 0.00 0.00 0.00 0.00 0.00 0.00 0.00 0.00 0.00 0.00 0.00 0.00 0.00 0.00 0.00 0.00 0.00 0.00 0.00 0.00 0.00 0.00 0.00 0.00 0.00 0.00
0.00 0.00 0.00 0.00 0.00 0.00 0.00 0.00 0.00 0.00 0.00 0.00 0.00 0.00 0.00 0.00 0.00 0.00 0.00 0.00 0.00 0.00 0.00 0.00 0.00 0.00 0.00 0.00 0.00 0.00 0.00 0.00 0.00 0.00 0.00 0.00 0.00 0.00 0.00 0.00 0.00 0.00 0.00
0.00 0.00 0.00 0.00 0.00 0.00 0.00 0.00 0.00 0.00 0.00 0.00 0.00 0.00 0.00 0.00 0.00 0.00 0.00 0.00 0.00 0.00 0.00 0.00 0.00 0.00 0.00 0.00 0.00 0.00 0.00 0.00 0.00 0.00 0.00 0.00 0.00 0.00 0.00 0.00 0.00 0.00 0.00
0.00 0.00 0.00 0.00 0.00 0.00 0.00 0.00 0.00 0.00 0.00 0.00 0.00 0.00 0.00 0.00 0.00 0.00 0.00 0.00 0.00 0.00 0.00 0.00 0.00 0.00 0.00 0.00 0.00 0.00 0.00 0.00 0.00 0.00 0.00 0.00 0.00 0.00 0.00 0.00 0.00 0.00 0.00
0.00 0.00 0.00 0.00 0.00 0.00 0.00 0.00 0.00 0.00 0.00 0.00 0.00 0.00 0.00 0.00 0.00 0.00 0.00 0.00 0.00 0.00 0.00 0.00 0.00 0.00 0.00 0.00 0.00 0.00 0.00 0.00 0.00 0.00 0.00 0.00 0.00 0.00 0.00 0.00 0.00 0.00 0.00
0.00 0.00 0.00 0.00 0.00 0.00 0.00 0.00 0.00 0.00 0.00 0.00 0.00 0.00 0.00 0.00 0.00 0.00 0.00 0.00 0.00 0.00 0.00 0.00 0.00 0.00 0.00 0.00 0.00 0.00 0.00 0.00 0.00 0.00 0.00 0.00 0.00 0.00 0.00 0.00 0.00 0.00 0.00
0.00 0.00 0.00 0.00 0.00 0.00 0.00 0.00 0.00 0.00 0.00 0.00 0.00 0.00 0.00 0.00 0.00 0.00 0.00 0.00 0.00 0.00 0.00 0.00 0.00 0.00 0.00 0.00 0.00 0.00 0.00 0.00 0.00 0.00 0.00 0.00 0.00 0.00 0.00 0.00 0.00 0.00 0.00
0.00 0.00 0.00 0.00 0.00 0.00 0.00 0.00 0.00 0.00 0.00 0.00 0.00 0.00 0.00 0.00 0.00 0.00 0.00 0.00 0.00 0.00 0.00 0.00 0.00 0.00 0.00 0.00 0.00 0.00 0.00 0.00 0.00 0.00 0.00 0.00 0.00 0.00 0.00 0.00 0.00 0.00 0.00
0.00 0.00 0.00 0.00 0.00 0.00 0.00 0.00 0.00 0.00 0.00 0.00 0.00 0.00 0.00 0.00 0.00 0.00 0.00 0.00 0.00 0.00 0.00 0.00 0.00 0.00 0.00 0.00 0.00 0.00 0.00 0.00 0.00 0.00 0.00 0.00 0.00 0.00 0.00 0.00 0.00 0.00 0.00
MSLP
1011.18 1010.08 1009.00 1008.12 1007.46 1007.04 1006.83 1007.01 1006.80 1006.80 1006.69 1006.47 1006.57 1006.50 1006.09 1005.77 1005.34 1004.58 1003.91 1003.60 1003.75 1004.41 1005.03 1005.41 1006.51 1006.86 1007.60 1008.31 1008.95 1009.35 1009.97 1010.54 1011.69 1014.26 1015.20 1015.58 1015.68 1015.71 1015.36 1015.17 1015.02 1015.01 1015.31
1011.21 1010.16 1009.19 1008.31 1007.78 1007.47 1007.40 1007.17 1006.95 1007.01 1006.89 1006.62 1006.54 1006.54 1006.20 1005.86 1005.50 1004.99 1004.35 1003.20 1003.87 1004.72 1005.27 1005.81 1006.52 1007.30 1007.96 1008.76 1009.10 1009.71 1010.08 1010.66 1011.54 1013.65 1015.25 1015.81 1016.04 1016.25 1016.26 1015.99 1016.27 1016.28 1016.37
1011.23 1010.31 1009.47 1008.84 1008.36 1007.99 1007.69 1007.45 1007.24 1007.09 1007.00 1007.00 1006.96 1006.81 1006.54 1006.18 1006.09 1005.66 1005.00 1004.64 1004.41 1005.02 1005.78 1006.28 1007.20 1008.04 1008.60 1008.77 1009.43 1010.03 1010.52 1010.80 1011.49 1012.98 1014.80 1015.73 1016.42 1016.46 1017.05 1017.14 1017.32 1017.50 1017.60
1011.35 1010.48 1009.81 1009.25 1008.74 1008.32 1008.00 1007.71 1007.48 1007.22 1007.31 1007.50 1007.39 1007.18 1007.04 1006.50 1006.83 1006.47 1005.81 1006.00 1004.71 1005.99 1006.64 1007.23 1007.81 1008.64 1009.51 1009.75 1009.44 1010.27 1010.86 1011.10 1012.04 1012.99 1014.59 1015.49 1016.20 1016.78 1017.15 1017.62 1018.26 1018.65 1018.76
1011.50 1010.67 1010.04 1009.48 1008.98 1008.64 1008.42 1008.20 1008.05 1007.92 1007.94 1008.02 1007.95 1007.68 1007.13 1007.13 1007.44 1006.51 1006.66 1007.24 1006.09 1006.87 1007.68 1008.07 1008.66 1009.56 1009.66 1010.34 1010.22 1010.62 1011.12 1011.90 1012.48 1013.56 1014.88 1015.75 1016.14 1016.88 1017.01 1017.89 1018.79 1019.29 1019.69
1011.95 1011.16 1010.51 1009.92 1009.44 1009.08 1008.88 1008.64 1008.53 1008.64 1008.60 1008.77 1008.48 1008.33 1008.10 1008.20 1008.34 1007.34 1007.14 1008.51 1006.63 1006.91 1007.96 1008.92 1009.76 1011.04 1011.44 1010.72 1011.05 1011.88 1011.76 1011.94 1013.03 1014.00 1014.93 1015.80 1016.44 1016.95 1017.47 1018.09 1018.96 1019.71 1020.31
1012.58 1011.83 1011.15 1010.58 1010.05 1009.71 1009.48 1009.33 1009.36 1009.33 1009.36 1009.43 1009.21 1009.25 1009.45 1009.30 1009.28 1008.22 1009.40 1008.15 1008.41 1008.52 1008.68 1010.08 1010.74 1011.69 1011.66 1011.64 1011.60 1012.64 1012.90 1013.01 1013.75 1014.30 1015.12 1015.97 1016.28 1016.67 1017.04 1018.08 1019.03 1019.46 1019.83
1013.16 1012.48 1011.88 1011.40 1010.97 1010.63 1010.32 1010.29 1010.18 1010.13 1010.24 1010.35 1010.25 1010.04 1010.05 1010.42 1009.63 1009.44 1010.41 1010.07 1009.34 1009.99 1010.29 1010.89 1011.96 1012.25 1012.31 1012.41 1012.89 1013.41 1013.98 1014.29 1015.02 1015.83 1016.12 1016.84 1017.02 1017.26 1017.39 1017.88 1018.72 1019.70 1020.33
1013.98 1013.31 1012.61 1012.13 1011.75 1011.47 1011.24 1011.24 1011.19 1011.01 1011.10 1011.31 1011.15 1010.66 1011.45 1011.16 1011.27 1012.07 1012.47 1012.42 1010.62 1010.98 1011.94 1012.35 1012.54 1012.64 1013.20 1013.72 1013.63 1014.09 1015.36 1015.98 1016.51 1016.78 1017.08 1017.25 1017.54 1018.01 1017.85 1018.22 1019.38 1020.08 1021.14
1015.09 1014.26 1013.50 1012.96 1012.67 1012.47 1012.36 1012.26 1012.28 1012.06 1012.09 1011.98 1011.60 1012.05 1012.11 1012.33 1012.81 1013.21 1013.50 1012.93 1012.75 1012.68 1013.43 1013.44 1013.48 1014.25 1014.17 1014.39 1014.64 1015.39 1016.64 1017.60 1017.88 1018.18 1018.33 1018.55 1019.39 1019.25 1019.07 1019.29 1019.87 1020.62 1021.22
1015.96 1015.24 1014.67 1014.23 1013.90 1013.65 1013.58 1013.47 1013.12 1012.95 1012.77 1012.79 1013.04 1012.97 1013.02 1013.22 1013.48 1013.45 1013.90 1013.48 1013.44 1014.02 1014.58 1015.26 1015.37 1015.69 1015.73 1015.85 1016.22 1016.76 1017.45 1018.17 1018.47 1019.06 1019.52 1019.96 1020.01 1020.65 1020.87 1020.71 1020.28 1020.27 1021.04
1016.67 1016.15 1015.61 1015.20 1015.01 1014.90 1014.58 1014.40 1014.32 1014.25 1014.23 1014.35 1014.20 1014.59 1015.00 1014.90 1014.73 1014.94 1014.67 1014.36 1015.21 1015.21 1016.04 1016.79 1016.76 1016.31 1016.76 1016.95 1017.32 1017.68 1018.11 1018.82 1019.51 1019.85 1021.01 1021.45 1021.44 1021.23 1021.36 1021.64 1021.46 1021.85 1021.67
1017.45 1016.81 1016.60 1016.41 1016.17 1015.93 1015.73 1015.72 1015.65 1015.46 1015.47 1015.60 1015.83 1016.07 1016.04 1015.76 1015.71 1015.73 1015.63 1015.59 1015.72 1016.06 1016.77 1017.03 1017.30 1017.56 1017.95 1018.28 1018.78 1019.13 1019.10 1019.69 1020.44 1020.74 1021.78 1022.29 1021.83 1021.86 1022.14 1021.64 1022.76 1022.68 1022.46
1018.09 1017.54 1017.25 1017.05 1016.93 1016.88 1016.73 1016.78 1016.71 1016.59 1016.48 1016.62 1016.93 1017.13 1017.14 1017.20 1017.15 1016.90 1016.79 1016.88 1016.99 1017.10 1017.40 1017.95 1018.63 1019.48 1020.01 1019.94 1020.22 1020.10 1020.68 1021.35 1021.90 1022.44 1023.04 1022.84 1022.50 1022.54 1022.80 1022.25 1023.02 1022.99 1023.26
1018.98 1018.62 1018.24 1017.75 1017.60 1017.73 1017.82 1017.88 1017.70 1017.75 1017.97 1018.16 1018.40 1018.29 1018.08 1017.92 1017.72 1017.66 1017.69 1017.79 1017.89 1018.40 1018.89 1019.52 1020.28 1020.58 1020.74 1021.37 1021.84 1022.44 1022.89 1022.66 1022.97 1023.80 1023.78 1023.53 1023.36 1022.93 1023.38 1023.53 1023.77 1023.97 1024.18
1019.38 1019.00 1018.78 1018.78 1018.93 1018.90 1018.66 1018.46 1018.29 1018.30 1018.39 1018.39 1018.50 1018.70 1018.49 1018.29 1018.27 1018.19 1017.97 1018.12 1018.31 1018.66 1019.75 1021.14 1021.96 1022.10 1022.51 1022.81 1023.30 1023.65 1023.97 1024.12 1024.74 1024.66 1024.20 1023.93 1024.05 1024.34 1024.68 1024.78 1024.81 1025.52 1025.52
1019.76 1019.53 1019.31 1019.07 1018.96 1019.06 1019.12 1019.19 1019.36 1019.50 1019.40 1019.24 1019.12 1019.04 1018.89 1018.77 1018.89 1019.04 1019.33 1019.40 1019.59 1020.18 1021.56 1022.47 1022.62 1022.78 1023.13 1023.68 1023.74 1024.76 1025.44 1025.16 1024.76 1024.65 1024.88 1024.86 1024.73 1025.00 1025.52 1026.18 1026.12 1025.79 1026.07
1019.97 1019.78 1019.65 1019.58 1019.48 1019.37 1019.32 1019.56 1019.85 1020.19 1020.83 1020.88 1020.52 1020.33 1020.15 1020.04 1019.97 1020.13 1020.58 1020.95 1021.72 1022.00 1022.72 1023.20 1023.67 1024.01 1024.48 1024.91 1025.20 1025.20 1025.02 1024.90 1025.08 1025.14 1025.20 1025.28 1025.43 1026.05 1026.65 1026.87 1026.71 1026.86 1027.10
1020.42 1020.32 1020.24 1020.20 1020.11 1020.03 1019.92 1020.09 1020.42 1020.78 1021.24 1021.58 1021.70 1021.55 1021.52 1021.35 1021.44 1021.56 1021.80 1022.53 1023.22 1023.76 1024.14 1024.57 1024.61 1024.67 1025.02 1024.86 1024.66 1024.65 1024.92 1025.36 1025.45 1025.54 1025.76 1025.93 1026.23 1026.73 1027.35 1027.42 1027.42 1027.51 1027.69
1020.53 1020.40 1020.39 1020.75 1020.68 1020.56 1020.56 1020.75 1021.06 1021.36 1021.73 1022.01 1022.19 1022.42 1022.07 1022.08 1022.70 1023.09 1023.26 1023.59 1024.12 1024.69 1024.78 1024.96 1025.02 1025.05 1025.05 1024.99 1025.13 1025.44 1025.78 1026.00 1026.20 1026.35 1026.51 1026.64 1026.82 1027.06 1027.77 1027.93 1027.99 1028.17 1028.26
1020.43 1020.52 1020.39 1020.83 1020.90 1020.95 1021.05 1021.27 1021.61 1022.02 1022.52 1022.89 1023.15 1022.92 1023.00 1023.80 1024.48 1024.97 1025.20 1025.23 1025.39 1025.52 1025.55 1025.59 1025.76 1025.81 1025.81 1025.91 1026.07 1026.16 1026.24 1026.32 1026.39 1026.50 1026.70 1026.93 1027.18 1027.56 1027.51 1027.65 1027.84 1028.05 1028.41
1019.78 1020.36 1020.63 1020.72 1020.95 1021.19 1021.38 1021.62 1021.94 1022.33 1022.77 1023.19 1023.54 1023.20 1023.34 1024.10 1024.62 1025.06 1025.28 1025.43 1025.67 1025.69 1025.66 1025.71 1026.09 1026.07 1025.84 1026.03 1026.46 1026.43 1026.46 1026.50 1026.57 1026.79 1026.99 1027.08 1027.15 1027.27 1027.48 1027.64 1027.77 1027.86 1028.08
1019.68 1020.33 1020.67 1020.93 1021.16 1021.44 1021.73 1021.95 1022.16 1022.44 1022.86 1023.32 1023.78 1024.08 1024.00 1024.37 1024.57 1024.81 1025.04 1025.32 1025.59 1025.36 1025.47 1025.65 1025.82 1025.87 1025.90 1025.90 1025.94 1026.05 1026.13 1026.07 1026.22 1026.63 1026.94 1026.97 1027.05 1027.08 1027.21 1027.44 1027.45 1027.66 1027.68
1019.42 1020.04 1020.49 1020.89 1021.19 1021.46 1021.69 1021.93 1022.19 1022.47 1022.83 1023.24 1023.65 1023.89 1024.05 1024.29 1024.59 1024.82 1025.08 1025.42 1025.29 1025.28 1025.28 1025.28 1025.38 1025.46 1025.58 1025.57 1025.51 1025.47 1025.39 1025.27 1025.44 1025.63 1025.88 1026.21 1026.30 1026.34 1026.53 1026.72 1026.80 1026.84 1026.98
1019.19 1019.77 1020.17 1020.53 1020.92 1021.27 1021.59 1021.84 1022.09 1022.36 1022.65 1023.03 1023.61 1023.77 1023.89 1024.17 1024.46 1024.71 1025.04 1024.92 1024.89 1025.00 1024.89 1024.90 1024.92 1024.86 1024.76 1024.71 1024.72 1024.65 1024.53 1024.37 1024.40 1024.46 1024.90 1025.37 1025.34 1025.34 1025.52 1025.71 1025.76 1025.92 1026.08
1018.88 1019.32 1019.83 1020.28 1020.65 1020.95 1021.20 1021.53 1021.85 1022.23 1022.63 1022.96 1023.04 1023.27 1023.57 1023.94 1024.19 1024.42 1024.64 1024.84 1024.85 1024.61 1024.54 1024.48 1024.33 1024.22 1024.13 1023.99 1023.83 1023.70 1023.57 1023.38 1023.35 1023.35 1023.64 1024.10 1024.36 1024.33 1024.50 1024.67 1024.79 1024.95 1024.96
Thickness
5333 5344 5355 5366 5377 5386 5397 5407 5420 5428 5438 5450 5458 5469 5483 5495 5505 5516 5534 5554 5566 5572 5578 5584 5582 5584 5583 5577 5574 5574 5575 5577 5574 5543 5540 5538 5540 5536 5539 5542 5545 5546 5544
5334 5343 5354 5363 5371 5379 5389 5401 5412 5420 5429 5441 5452 5462 5475 5487 5498 5507 5523 5543 5553 5558 5563 5570 5572 5572 5568 5565 5565 5562 5562 5559 5556 5537 5528 5526 5527 5523 5524 5527 5525 5526 5523
5334 5342 5351 5357 5365 5373 5383 5394 5404 5413 5423 5432 5441 5452 5464 5478 5487 5496 5510 5523 5538 5547 5553 5556 5555 5556 5554 5550 5550 5549 5546 5548 5544 5535 5523 5518 5511 5512 5507 5508 5508 5508 5506
5335 5342 5348 5354 5362 5370 5379 5389 5398 5409 5417 5423 5432 5443 5454 5467 5472 5482 5495 5508 5525 5528 5535 5540 5542 5541 5537 5536 5541 5534 5533 5535 5530 5526 5514 5509 5503 5500 5496 5495 5490 5487 5486
5331 5338 5344 5352 5360 5368 5375 5383 5392 5401 5408 5415 5424 5434 5446 5454 5457 5471 5478 5487 5512 5516 5518 5523 5523 5522 5525 5521 5522 5524 5522 5518 5516 5511 5502 5496 5493 5488 5488 5479 5471 5467 5463
5325 5333 5340 5347 5355 5364 5371 5379 5386 5392 5399 5406 5415 5423 5431 5439 5440 5455 5468 5468 5501 5510 5510 5508 5508 5500 5503 5509 5508 5505 5509 5509 5503 5498 5491 5485 5478 5474 5469 5464 5455 5450 5448
5322 5327 5335 5343 5351 5358 5366 5372 5378 5385 5391 5399 5406 5411 5417 5424 5431 5448 5447 5469 5479 5489 5498 5489 5489 5485 5489 5493 5496 5488 5489 5490 5487 5483 5477 5469 5467 5463 5459 5449 5443 5440 5438
5323 5326 5332 5337 5344 5352 5359 5364 5371 5378 5384 5390 5395 5402 5409 5410 5425 5437 5439 5452 5467 5471 5475 5477 5470 5470 5472 5475 5475 5470 5470 5470 5464 5457 5455 5449 5446 5446 5444 5439 5433 5423 5418
5324 5326 5331 5336 5341 5348 5357 5362 5369 5376 5380 5381 5384 5400 5396 5406 5412 5413 5417 5425 5450 5451 5452 5455 5456 5459 5458 5456 5460 5457 5449 5445 5442 5439 5437 5435 5432 5426 5426 5423 5414 5410 5401
5327 5331 5334 5338 5343 5347 5352 5358 5362 5367 5372 5380 5388 5392 5396 5402 5405 5405 5407 5421 5426 5433 5433 5439 5445 5442 5444 5445 5443 5438 5429 5424 5422 5420 5419 5415 5406 5407 5406 5403 5396 5387 5382
5331 5334 5337 5340 5343 5346 5349 5355 5362 5365 5373 5380 5384 5391 5395 5398 5402 5405 5405 5416 5422 5423 5422 5420 5424 5423 5424 5425 5423 5420 5415 5410 5407 5402 5398 5393 5392 5382 5379 5378 5381 5380 5371
5337 5339 5341 5343 5344 5346 5351 5356 5360 5366 5371 5376 5383 5384 5384 5388 5395 5395 5402 5411 5405 5409 5406 5402 5406 5412 5409 5408 5405 5402 5399 5392 5385 5383 5372 5366 5365 5366 5363 5358 5359 5354 5353
5341 5344 5344 5345 5347 5349 5353 5357 5361 5367 5371 5374 5375 5376 5380 5386 5389 5392 5396 5399 5400 5399 5394 5395 5395 5395 5391 5388 5384 5381 5379 5373 5365 5364 5353 5347 5349 5347 5343 5347 5334 5333 5334
5347 5351 5352 5353 5353 5354 5356 5358 5361 5365 5369 5370 5372 5372 5374 5375 5379 5383 5386 5388 5389 5389 5388 5385 5379 5370 5365 5366 5363 5364 5357 5349 5341 5336 5330 5329 5331 5328 5323 5325 5316 5313 5308
5350 5353 5357 5358 5358 5359 5359 5359 5362 5363 5363 5363 5363 5367 5368 5372 5376 5377 5377 5376 5376 5373 5369 5365 5357 5354 5352 5344 5339 5332 5326 5328 5324 5312 5310 5309 5308 5310 5303 5298 5291 5286 5281
5357 5358 5361 5361 5358 5356 5358 5361 5365 5367 5368 5370 5370 5368 5370 5372 5371 5371 5373 5371 5369 5366 5353 5339 5334 5332 5327 5323 5317 5311 5306 5300 5291 5290 5290 5290 5286 5280 5273 5267 5263 5253 5249
5361 5362 5365 5368 5369 5367 5365 5363 5359 5362 5363 5364 5365 5365 5365 5366 5363 5360 5356 5354 5351 5344 5328 5320 5318 5316 5310 5302 5298 5285 5275 5274 5273 5272 5266 5262 5259 5252 5245 5234 5231 5230 5223
5360 5361 5361 5361 5361 5363 5366 5365 5361 5356 5349 5346 5351 5351 5351 5349 5348 5344 5337 5330 5321 5318 5310 5304 5297 5291 5282 5274 5266 5263 5261 5257 5251 5246 5241 5235 5228 5220 5211 5204 5202 5194 5188
5360 5359 5358 5358 5357 5357 5356 5354 5348 5341 5334 5328 5328 5329 5326 5327 5323 5320 5315 5305 5297 5290 5283 5277 5271 5266 5259 5256 5253 5248 5240 5231 5225 5219 5211 5204 5196 5188 5179 5174 5170 5166 5158
5356 5356 5354 5352 5350 5349 5346 5342 5336 5330 5325 5318 5315 5312 5311 5309 5299 5294 5289 5283 5276 5267 5261 5255 5249 5244 5239 5235 5229 5220 5211 5203 5195 5188 5180 5173 5166 5160 5152 5145 5139 5133 5127
5353 5350 5349 5345 5341 5338 5334 5330 5324 5318 5311 5303 5301 5298 5296 5284 5273 5268 5261 5256 5250 5244 5238 5232 5226 5220 5213 5207 5199 5192 5184 5178 5170 5163 5154 5146 5138 5130 5124 5118 5111 5105 5100
5352 5347 5343 5339 5334 5330 5323 5319 5313 5307 5300 5294 5287 5284 5282 5267 5258 5251 5244 5238 5233 5228 5222 5215 5207 5200 5193 5185 5176 5167 5158 5150 5142 5133 5125 5118 5110 5102 5095 5089 5083 5078 5072
5346 5340 5334 5327 5323 5317 5311 5305 5300 5295 5287 5280 5271 5265 5258 5251 5244 5237 5231 5225 5219 5212 5205 5196 5188 5180 5171 5162 5153 5144 5133 5124 5117 5109 5099 5091 5083 5076 5069 5062 5056 5050 5043
5339 5333 5326 5317 5311 5305 5299 5292 5287 5281 5274 5266 5258 5250 5243 5234 5227 5221 5215 5208 5201 5193 5185 5177 5168 5158 5148 5139 5130 5121 5113 5105 5096 5088 5080 5071 5063 5054 5044 5035 5028 5021 5016
5331 5324 5318 5311 5303 5296 5288 5280 5273 5265 5258 5251 5240 5232 5224 5217 5210 5203 5197 5189 5181 5172 5163 5154 5144 5135 5126 5117 5108 5100 5092 5083 5074 5066 5058 5050 5041 5031 5020 5010 5002 4993 4985
5323 5316 5309 5300 5291 5283 5277 5269 5260 5252 5243 5235 5228 5220 5212 5202 5194 5186 5177 5168 5159 5149 5140 5130 5121 5112 5103 5095 5086 5078 5069 5061 5054 5045 5037 5027 5017 5007 4996 4987 4979 4972 4965